This is the latest recevied weather packets stored in our database for station/object N8QF-1. If no packets are shown the sender has not sent any weather packets the latest 1 day(s).
| Time | Temp. | Humidity | Pressure | Rain* | Wind** | Luminosity | Snow |
|---|---|---|---|---|---|---|---|
| 1778056967 | 7.22° C | 94% | 1008.4 hPa | 1.52 mm | - | - | - |
| 1778056667 | 7.22° C | 94% | 1008.2 hPa | 1.52 mm | - | - | - |
| 1778056066 | 6.67° C | 95% | 1008.6 hPa | 1.52 mm | - | - | - |
| 1778055765 | 7.22° C | 95% | 1008.4 hPa | 1.52 mm | - | - | - |
| 1778055465 | 6.67° C | 95% | 1008.2 hPa | 1.52 mm | - | - | - |
| 1778054561 | 7.22° C | 94% | 1008.4 hPa | 1.52 mm | - | - | - |
| 1778053959 | 7.22° C | 94% | 1008.1 hPa | 0.76 mm | - | - | - |
| 1778053359 | 7.78° C | 95% | 1008.4 hPa | 0.76 mm | - | - | - |
| 1778052758 | 7.78° C | 95% | 1008.5 hPa | 0.76 mm | - | - | - |
| 1778052156 | 8.33° C | 96% | 1008.3 hPa | 0.76 mm | - | - | - |
| 1778051556 | 8.33° C | 96% | 1008.1 hPa | 0.76 mm | - | - | - |
| 1778050955 | 8.33° C | 96% | 1008.2 hPa | 0.76 mm | - | - | - |
| 1778050654 | 8.89° C | 97% | 1008.1 hPa | 0.76 mm | - | - | - |
| 1778050354 | 8.89° C | 97% | 1008 hPa | 3.3 mm | - | - | - |
| 1778049753 | 8.89° C | 97% | 1007.9 hPa | 3.3 mm | - | - | - |
| 1778049452 | 8.33° C | 97% | 1007.7 hPa | 3.3 mm | - | - | - |
| 1778049151 | 8.89° C | 97% | 1007.5 hPa | 3.3 mm | - | - | - |
| 1778048551 | 8.89° C | 97% | 1007.6 hPa | 3.3 mm | - | - | - |
| 1778048248 | 8.89° C | 97% | 1007.5 hPa | 3.3 mm | - | - | - |
| 1778047046 | 8.89° C | 97% | 1007.5 hPa | 3.3 mm | - | - | - |
| 1778046445 | 8.33° C | 96% | 1007.3 hPa | 3.56 mm | - | - | - |
| 1778045843 | 8.89° C | 96% | 1007.8 hPa | 3.56 mm | - | - | - |
| 1778045241 | 8.89° C | 97% | 1007.2 hPa | 3.56 mm | - | - | - |
| 1778044039 | 9.44° C | 97% | 1007.7 hPa | 3.56 mm | - | - | - |
| 1778043438 | 10° C | 98% | 1007.5 hPa | 3.56 mm | - | - | - |
* Rain latest hour (hover to see other rain measurements)
** Current wind speed in m/s (hover to see current wind gust speed)